ECHOSTAR 18 (41592 NORAD) Tracking and Keplerian Element Data

This shows tracking and keplerian element data for the satellite.

Feedback or suggestion? Click here.




ElementValue
Catalog41592
NameECHOSTAR 18
Epoch Orbit887
Epoch Day322.01200353
Epoch Year2018
RAAN290.2899
Inclination0.0152
Eccentricity0.0001649
Argument of Perigee303.227
Mean Anonmoly126.4679
Mean Motion1.0026878
Decay Rate-2.75E-06
L11 41592U 16039B 18322.01200353 -.00000275 00000-0 00000+0 0 9994
L22 41592 0.0152 290.2899 0001649 303.2270 126.4679 1.00268780 8877

Live tracking and technical data element details for ECHOSTAR 18 (NORAD 41592). ECHOSTAR 18 can be tracked NOW for your location showing map with azimuth and elevation plus other details from your city location.

Track the satellite on the map from your city or location and see movement details for azimuth, elevation, latitude, longitude, range, height, and movement on the map or in text.







IsCatalogInMostPopularTable: catalog: 41592, numindb: 87
Update: records affected: 1



GetName: 41592 ECHOSTAR 18

Hit Count: updated at: Tue, 20 Nov 2018 00:43:00 GMT